Regional Weather Roundup
Issued by NWS

Home | Current Version | Previous Version | Graphics & Text | Print | Product List | Glossary On
Versions: 1 2 3 4 5 6 7 8 9 10 11 12 13 14 15 16 17 18 19 20 21 22 23 24 25 26 27 28 29 30 31 32 33 34 35 36 37 38 39 40 41 42 43 44 45 46 47 48 49 50
000
ASUS43 KTOP 260759
RWRKS

WEATHER ROUNDUP FOR KANSAS
NATIONAL WEATHER SERVICE GOODLAND KS
300 AM CDT TUE SEP 26 2017

NOTE:  "FAIR" INDICATES FEW OR NO CLOUDS BELOW 12,000 FEET WITH NO
SIGNIFICANT WEATHER AND/OR OBSTRUCTIONS TO VISIBILITY.

KSZ001>006-013>018-027>032-041>047-260900-
NORTHWEST KANSAS

CITY           SKY/WX    TMP DP  RH WIND       PRES   REMARKS
GOODLAND       CLOUDY    47  45  93 N12       30.13S
HAYS           CLOUDY    52  50  93 N10       30.09R
HILL CITY      CLOUDY    52  50  93 NW9       30.11R
RUSSELL        CLOUDY    52  51  97 N13       30.06S
$$

KSZ061>065-074>080-084>089-260900-
SOUTHWEST KANSAS

CITY           SKY/WX    TMP DP  RH WIND       PRES   REMARKS
DODGE CITY     CLOUDY    52  52 100 N13       30.09R FOG
ELKHART          N/A     50  52 100 N7          N/A
GARDEN CITY    CLOUDY    51  49  92 N12       30.10R
GREAT BEND     CLOUDY    53  52  96 N9        30.06S
LIBERAL        CLOUDY    53  51  93 N15       30.09R
$$

KSZ066>073-081>083-090>101-260900-
SOUTHEAST KANSAS

CITY           SKY/WX    TMP DP  RH WIND       PRES   REMARKS
CHANUTE        CLOUDY    69  64  84 CALM      29.96R
COFFEYVILLE    CLOUDY    69  66  90 N7        29.93R
HUTCHINSON     CLOUDY    59  59 100 NW10      30.02R
NEWTON         CLOUDY    61  60  97 NW15      30.01R
PARSONS        LGT RAIN  68  65  90 NW7       29.97R
WICHITA INTL   LGT RAIN  63  62  97 NW14      29.99R
WICHITA JABRA  CLOUDY    63  63 100 NW7       29.99R
WICHITA MCCONL CLOUDY    64  61  88 N10       29.98S
WINFIELD       CLOUDY    66  66 100 NW9       29.99R
$$

KSZ007>012-019>026-033>040-048>060-102>105-260900-
NORTHEAST KANSAS

CITY           SKY/WX    TMP DP  RH WIND       PRES   REMARKS
CONCORDIA      CLOUDY    54  54 100 N9G17     30.03R
EMPORIA        CLOUDY    65  64  97 CALM      29.96R
LAWRENCE       CLOUDY    66  66 100 SW12      29.97R
MANHATTAN      LGT RAIN  64  63  96 N5        29.98R
OLATHE IND     CLOUDY    67  64  90 CALM      29.94S
OLATHE EXE     MOCLDY    66  64  93 CALM      29.94S
SALINA         CLOUDY    59  56  89 NW14      30.02R
TOPEKA BILLARD CLOUDY    66  66 100 W5        29.96R
TOPEKA FORBES  CLOUDY    68  67  96 W3        29.96R
$$



USA.gov is the U.S. government's official web portal to all federal, state and local government web resources and services.